{"data":{"norad_id":36122,"epoch":"2026-05-25T03:21:48.910752Z","epoch_age_seconds":62705,"freshness":"FRESH","line1":"1 36122U 09072B   26145.14014943  .00000363  00000+0  10676-2 0  9999","line2":"2 36122 100.4015  99.3422 0006880 289.1607  70.8761 13.16440469789978","mean_motion":13.16440469,"eccentricity":0.000688,"inclination_deg":100.4015,"raan_deg":99.3422,"arg_perigee_deg":289.1607,"mean_anomaly_deg":70.8761,"bstar":0.0010676,"rev_number":78997,"period_min":109.38588063111,"perigee_km":1193.1340509043,"apogee_km":1203.5592924365,"semimajor_km":7576.4836716704,"source":"CELESTRAK","updated_at":"2026-05-25T13:38:23.284201Z"}}